Chanute, KS

12:03 AM CST on February 25, 2017 (GMT -0600)
Chanute Martin Johnson

Weather History for KCNU - December, 2013

Change the Weather History Date:

Friday, December 27, 2013

  Actual Average Record
Temperature  
Mean Temperature 38 °F 33 °F  
Max Temperature 51 °F 42 °F 74 °F (1946)
Min Temperature 24 °F 24 °F 3 °F (1925)
Degree Days  
Heating Degree Days 27 32  
Month to date heating degree days 900 809  
Since 1 July heating degree days 1820 1661  
Cooling Degree Days 0 0  
Month to date cooling degree days 0 0  
Year to date cooling degree days 1560 1532  
Moisture  
Dew Point 29 °F    
Average Humidity 78    
Maximum Humidity 100    
Minimum Humidity 56    
Precipitation  
Precipitation 0.00 in 0.06 in 1.41 in (1927)
Month to date precipitation 0.16 1.58  
Year to date precipitation 47.75 41.90  
Sea Level Pressure  
Sea Level Pressure 30.33 in    
Wind  
Wind Speed 7 mph (South)    
Max Wind Speed 13 mph    
Max Gust Speed 15 mph    
Visibility 10 miles    
Events      
T = Trace of Precipitation, MM = Missing Value Source: NWS Daily Summary

Daily Weather History Graph

Daily Weather History Graph

Search for Another Location

Airport or City:

Trip Planner

Search our weather history database for the weather conditions in past years. The results will help you decide how hot, cold, wet, or windy it might be!

Date:

Astronomy

Dec. 27, 2013 Rise Set
Actual Time 7:35 AM CST 5:10 PM CST
Civil Twilight 7:06 AM CST 5:39 PM CST
Nautical Twilight 6:33 AM CST 6:12 PM CST
Astronomical Twilight 6:01 AM CST 6:44 PM CST
Moon 2:12 AM CST (12/27) 1:18 PM CST (12/27)
Length of Visible Light 10h 33m
Length of Day
9h 34m
Waning Crescent, 28% of the Moon is Illuminated
Dec 27
Waning Crescent
Jan 1
New
Jan 7
First Quarter
Jan 15
Full
Jan 23
Last Quarter

Hourly Weather History & Observations

Time (CST) Temp. Windchill Dew Point Humidity Pressure Visibility Wind Dir Wind Speed Gust Speed Precip Events Conditions
12:52 AM 28.0 °F - 25.0 °F 88% 30.34 in 6.0 mi Calm Calm - N/A   Clear
1:52 AM 26.1 °F 19.4 °F 25.0 °F 96% 30.34 in 6.0 mi SSE 5.8 mph - N/A   Clear
2:52 AM 28.0 °F 20.8 °F 25.0 °F 88% 30.34 in 7.0 mi South 6.9 mph - N/A   Clear
3:52 AM 28.0 °F 22.8 °F 25.0 °F 88% 30.35 in 10.0 mi SSW 4.6 mph - N/A   Clear
4:52 AM 28.9 °F 21.9 °F 25.0 °F 85% 30.34 in 10.0 mi South 6.9 mph - N/A   Clear
5:52 AM 27.0 °F 23.0 °F 25.0 °F 92% 30.35 in 10.0 mi SSW 3.5 mph - N/A   Clear
6:52 AM 28.0 °F 20.0 °F 25.0 °F 88% 30.36 in 10.0 mi South 8.1 mph - N/A   Clear
7:52 AM 26.1 °F 21.9 °F 24.1 °F 92% 30.38 in 10.0 mi SW 3.5 mph - N/A   Clear
8:52 AM 30.9 °F 26.2 °F 28.0 °F 89% 30.38 in 10.0 mi South 4.6 mph - N/A   Clear
9:52 AM 36.0 °F 29.6 °F 30.9 °F 82% 30.40 in 10.0 mi SSW 8.1 mph - N/A   Clear
10:52 AM 39.9 °F 34.5 °F 33.1 °F 77% 30.39 in 10.0 mi South 8.1 mph - N/A   Clear
11:52 AM 45.0 °F 41.2 °F 35.1 °F 68% 30.37 in 10.0 mi SSW 6.9 mph - N/A   Clear
12:52 PM 48.0 °F - 36.0 °F 63% 30.34 in 10.0 mi South 9.2 mph - N/A   Clear
1:52 PM 50.0 °F - 35.1 °F 57% 30.31 in 10.0 mi SSW 9.2 mph - N/A   Clear
2:52 PM 50.0 °F - 35.1 °F 57% 30.30 in 10.0 mi SSW 10.4 mph - N/A   Clear
3:52 PM 50.0 °F - 36.0 °F 59% 30.30 in 10.0 mi South 8.1 mph - N/A   Clear
4:52 PM 43.0 °F 38.2 °F 35.1 °F 74% 30.30 in 10.0 mi South 8.1 mph - N/A   Clear
5:52 PM 33.1 °F 28.7 °F 28.9 °F 85% 30.32 in 10.0 mi South 4.6 mph - N/A   Clear
6:52 PM 37.0 °F 31.6 °F 30.9 °F 79% 30.32 in 10.0 mi SSE 6.9 mph - N/A   Clear
7:52 PM 33.1 °F 26.1 °F 28.0 °F 82% 30.31 in 10.0 mi South 8.1 mph - N/A   Clear
8:52 PM 33.1 °F 26.9 °F 28.9 °F 85% 30.29 in 10.0 mi South 6.9 mph - N/A   Clear
9:52 PM 28.9 °F 21.9 °F 27.0 °F 92% 30.27 in 10.0 mi South 6.9 mph - N/A   Clear
10:52 PM 35.1 °F 27.9 °F 30.0 °F 82% 30.27 in 10.0 mi SSW 9.2 mph - N/A   Clear
11:52 PM 37.0 °F 29.3 °F 30.0 °F 76% 30.26 in 10.0 mi South 11.5 mph - N/A   Clear